Regional Weather Roundup
Issued by NWS

Home | Current Version | Previous Version | Text Only | Print | Product List | Glossary On
Versions: 1 2 3 4 5 6 7 8 9 10 11 12 13 14 15 16 17 18 19 20 21 22 23 24 25 26 27 28 29 30 31 32 33 34 35 36 37 38 39 40 41 42 43 44 45 46 47 48 49 50
000
ASUS45 KCYS 250410
RWRWY

WYOMING REGIONAL WEATHER ROUNDUP
NATIONAL WEATHER SERVICE CHEYENNE WY
1000 PM MDT MON APR 24 2017

NOTE:  "FAIR" INDICATES FEW OR NO CLOUDS BELOW 12,000 FEET
WITH NO SIGNIFICANT WEATHER AND/OR OBSTRUCTIONS TO VISIBILITY.

WYZ001-250500-
YELLOWSTONE NATIONAL PARK

CITY           SKY/WX    TMP DP  RH WIND       PRES   REMARKS
LK YELLOWSTONE   N/A     30  30 100 CALM      29.65R
W YELLOWSTONE  NOT AVBL

$$
WYZ002>013-054>058-071-098>099-250500-
NORTHERN WYOMING

CITY           SKY/WX    TMP DP  RH WIND       PRES   REMARKS
JACKSON        CLOUDY    36  36 100 S14       29.65R WCI  27
CODY           LGT RAIN  39  36  89 NW10      29.60R WCI  32
GREYBULL       CLOUDY    46  40  79 NW18      29.51S
WORLAND        LGT RAIN  46  44  93 NW16G23   29.52R
SHERIDAN       LGT RAIN  44  41  89 NE8       29.60R
BUFFALO        LGT RAIN  42  37  82 NW3       29.58S
GILLETTE       CLOUDY    45  43  93 E9        29.55S
HULETT         CLOUDY    43  39  87 E14G21    29.61S
NEWCASTLE      FAIR      48  34  57 E15G22    29.56S

$$
WYZ014>020-022>026-101>103-250500-
CENTRAL WYOMING

CITY           SKY/WX    TMP DP  RH WIND       PRES   REMARKS
BIG PINEY      MOCLDY    34  29  82 N10       29.67R WCI  26
PINEDALE       FAIR      30  30 100 NW5       29.67R WCI  25
DUBOIS         FAIR      34  28  80 NW13      29.58S WCI  25
LANDER         MOCLDY    42  34  73 SW5       29.54R
RIVERTON       CLOUDY    42  36  79 N9G18     29.53F
CASPER         CLOUDY    41  38  89 S16       29.53R
DOUGLAS        LGT RAIN  45  42  89 SE13G21   29.55R

$$
WYZ021-027>030-104>119-250500-
SOUTHERN WYOMING

CITY           SKY/WX    TMP DP  RH WIND       PRES   REMARKS
EVANSTON       FOG       31  31 100 SW10      29.75R VSB 1/4 WCI  22
KEMMERER         N/A     32  32 100 W21G29    29.70R WCI  20
FORT BRIDGER   FAIR      34  34 100 W16       29.75R WCI  24
ROCK SPRINGS   MOCLDY    36  32  85 W20G29    29.67R WCI  25
DIXON            N/A     36  34  94 N6        29.70F WCI  31
RAWLINS        MOCLDY    37  33  85 SW16G24   29.62S WCI  28
SARATOGA       CLOUDY    34  34 100 SE5       29.67R WCI  30
LARAMIE        LGT SNOW  32  32 100 SW3       29.64F FOG
CHEYENNE       MOCLDY    40  38  93 E3        29.60S
TORRINGTON     LGT RAIN  49  45  86 SE3       29.56F
PINE BLUFFS    CLOUDY    43  43 100 E7        29.59F

$$



USA.gov is the U.S. government's official web portal to all federal, state and local government web resources and services.